Location: Newark
(21.1200°N, 73.4000°E)
Time: 23:13:31
(UTC+00:00)

Vanguard 1 Rocket - Pass Details

Date: 17 January 2021
Orbit: 654 x 4223 km, 34.3° (Epoch: 06 March)

Event Time Altitude Azimuth Distance (km) Brightness Sun altitude
Rises 13:41:20 0° 300° (WNW) 3,728 11.2 -12.8°
Reaches altitude 10° 13:43:25 10° 301° (WNW) 3,017 10.7 -13.2°
Maximum altitude 13:50:57 82° 30° (NNE) 1,713 8.6 -14.9°
Drops below altitude 10° 14:06:21 10° 118° (ESE) 5,776 11.1 -18.4°
Sets 14:12:03 0° 119° (ESE) 7,329 11.6 -19.6°
